Weather History for HETB - January, 2013

Change the Weather History Date:

Sunday, January 27, 2013

  Actual Average Record
Temperature  
Mean Temperature 58 °F -  
Max Temperature 64 °F - - ()
Min Temperature 51 °F - - ()
Degree Days  
Heating Degree Days 8    
Growing Degree Days 8 (Base 50)    
Moisture  
Dew Point 40 °F    
Average Humidity 55    
Maximum Humidity 88    
Minimum Humidity 26    
Precipitation  
Precipitation 0.00 in - - ()
Sea Level Pressure  
Sea Level Pressure 29.98 in    
Wind  
Wind Speed 3 mph ()    
Max Wind Speed 17 mph    
Max Gust Speed -    
Visibility 6.2 miles    
Events      
T = Trace of Precipitation, MM = Missing Value Source: Averaged Metar Reports

Daily Weather History Graph

Daily Weather History Graph

Search for Another Location

Airport or City:

Trip Planner

Search our weather history database for the weather conditions in past years. The results will help you decide how hot, cold, wet, or windy it might be!

Date:

Astronomy

Jan. 27, 2013 Rise Set
Actual Time 6:33 AM EET 5:14 PM EET
Civil Twilight 6:07 AM EET 5:39 PM EET
Nautical Twilight 5:39 AM EET 6:08 PM EET
Astronomical Twilight 5:10 AM EET 6:36 PM EET
Moon 5:41 PM EET (1/27) 6:19 AM EET (1/27)
Length of Visible Light 11h 31m
Length of Day
10h 41m
Full, 100% of the Moon is Illuminated
Jan 27
Full
Feb 3
Last Quarter
Feb 10
New
Feb 17
First Quarter
Feb 25
Full

Hourly Weather History & Observations

Time (EET) Temp. Dew Point Humidity Pressure Visibility Wind Dir Wind Speed Gust Speed Precip Events Conditions
12:00 AM 64.4 °F 57.2 °F 77% 29.95 in 6.2 mi Calm Calm - N/A   Mostly Cloudy
1:00 AM 62.6 °F 57.2 °F 82% 29.95 in 6.2 mi ESE 2.3 mph - N/A   Mostly Cloudy
2:00 AM 62.6 °F 59.0 °F 88% 29.92 in 6.2 mi Calm Calm - N/A   Scattered Clouds
3:00 AM 53.6 °F 46.4 °F 77% 29.95 in 6.2 mi NW 17.3 mph - N/A   Mostly Cloudy
4:00 AM 53.6 °F 44.6 °F 72% 29.98 in - North - - N/A   Scattered Clouds
5:00 AM 53.6 °F 44.6 °F 72% 29.95 in - North - - N/A   Scattered Clouds
6:00 AM 51.8 °F 42.8 °F 71% 29.98 in 6.2 mi NW 8.1 mph - N/A   Scattered Clouds
7:00 AM 53.6 °F 42.8 °F 67% 30.01 in 6.2 mi NNW 6.9 mph - N/A   Mostly Cloudy
8:00 AM 53.6 °F 44.6 °F 72% 30.01 in 6.2 mi NW 4.6 mph - N/A   Mostly Cloudy
9:00 AM 55.4 °F 42.8 °F 63% 30.04 in 6.2 mi NW 6.9 mph - N/A   Mostly Cloudy
10:00 AM 57.2 °F 41.0 °F 55% 30.04 in 6.2 mi Calm Calm - N/A   Scattered Clouds
11:00 AM 59.0 °F 33.8 °F 39% 30.01 in 6.2 mi WNW 2.3 mph - N/A   Scattered Clouds
12:00 PM 60.8 °F 32.0 °F 34% 29.98 in 6.2 mi North 5.8 mph - N/A   Scattered Clouds
1:00 PM 62.6 °F 32.0 °F 32% 29.98 in 6.2 mi NNW 1.2 mph - N/A   Scattered Clouds
2:00 PM 62.6 °F 28.4 °F 27% 29.98 in 6.2 mi Calm Calm - N/A   Scattered Clouds
3:00 PM 64.4 °F 28.4 °F 26% 29.98 in 6.2 mi Calm Calm - N/A   Mostly Cloudy
5:00 PM 60.8 °F 28.4 °F 29% 29.98 in 6.2 mi Calm Calm - N/A   Mostly Cloudy
6:00 PM 59.0 °F 30.2 °F 34% 29.98 in 6.2 mi Calm Calm - N/A   Mostly Cloudy
7:00 PM 57.2 °F 33.8 °F 41% 29.98 in 6.2 mi Calm Calm - N/A   Mostly Cloudy
8:00 PM 53.6 °F 35.6 °F 51% 29.98 in 6.2 mi Calm Calm - N/A   Scattered Clouds
9:00 PM 53.6 °F 33.8 °F 47% 29.98 in 6.2 mi Calm Calm - N/A   Scattered Clouds
10:00 PM 53.6 °F 33.8 °F 47% 29.98 in 6.2 mi Calm Calm - N/A   Scattered Clouds
11:00 PM 51.8 °F 37.4 °F 58% 29.98 in 6.2 mi Calm Calm - N/A   Scattered Clouds